Location: Splawn
(30.9202°N, 96.9858°W)
Time: 14:34:01
(UTC+00:00)

Transit 2A Rocket - Pass Details

Date: 01 March 2020
Orbit: 588 x 915 km, 66.7° (Epoch: 07 April)

Event Time Altitude Azimuth Distance (km) Brightness Sun altitude
Rises 02:16:00 0° 200° (SSW) 2,808 8.1 -24.3°
Reaches altitude 10° 02:18:13 10° 199° (SSW) 1,904 7.2 -24.8°
Enters shadow 02:20:11 27° 195° (SSW) 1,142 5.9 -25.2°
Maximum altitude 02:22:27 76° 114° (ESE) 612 - -25.7°
Drops below altitude 10° 02:26:48 10° 29° (NNE) 1,960 - -26.6°
Sets 02:29:06 0° 27° (NNE) 2,898 - -27.1°
